Zurück zum Katalog

THORAD AGENA D DEB *

AktivPO
NORAD 5824·DEBRIS·🇺🇸 United States

Gestartet Apr 8, 1970 von Vandenberg Space Force Base

Loading…

Nächste Überflüge (nächste 24 Stunden)

TLE

AktuellSource: Space-Track

Epoche: Sep 14, 2026, 18:49 UTC

1 05824U 70025MJ  26257.78429475  .00000368  00000-0  30250-3 0  9991
2 05824  97.8771 297.7997 0598165  54.4495 311.0907 13.31238457688881

Verfolge THORAD AGENA D DEB * in Echtzeit mit AllMySat

Download on the App Store